Rochester, NH

8:20 PM EST on February 05, 2016 (GMT -0500)
Skyhaven

Weather History for KDAW - February, 2012

Change the Weather History Date:

Sunday, February 12, 2012

  Actual Average (KSFM) Record (KSFM)
Temperature  
Mean Temperature 14 °F -  
Max Temperature 19 °F 31 °F 51 °F (1999)
Min Temperature 9 °F 12 °F -16 °F (2014)
Degree Days  
Heating Degree Days 50    
Moisture  
Dew Point -3 °F    
Average Humidity 47    
Maximum Humidity 62    
Minimum Humidity 37    
Precipitation  
Precipitation 0.00 in - - ()
Sea Level Pressure  
Sea Level Pressure 29.67 in    
Wind  
Wind Speed 14 mph (NW)    
Max Wind Speed 22 mph    
Max Gust Speed 31 mph    
Visibility 10 miles    
Events      
Averages and records for this station are not official NWS values.
T = Trace of Precipitation, MM = Missing Value Source: NWS Daily Summary

Daily Weather History Graph

Daily Weather History Graph

Search for Another Location

Airport or City:

Trip Planner

Search our weather history database for the weather conditions in past years. The results will help you decide how hot, cold, wet, or windy it might be!

Date:

Astronomy

Feb. 12, 2012 Rise Set
Actual Time 6:46 AM EST 5:09 PM EST
Civil Twilight 6:17 AM EST 5:39 PM EST
Nautical Twilight 5:43 AM EST 6:12 PM EST
Astronomical Twilight 5:10 AM EST 6:46 PM EST
Moon 11:17 PM EST (2/12) 8:51 AM EST (2/12)
Length of Visible Light 11h 22m
Length of Day
10h 23m
Waning Gibbous, 72% of the Moon is Illuminated
Feb 12
Waning Gibbous
Feb 14
Last Quarter
Feb 21
New
Feb 29
First Quarter
Mar 8
Full

Hourly Weather History & Observations

Time (EST) Temp. Windchill Dew Point Humidity Pressure Visibility Wind Dir Wind Speed Gust Speed Precip Events Conditions
12:51 AM 19.9 °F 6.2 °F 9.0 °F 62% 29.55 in 10.0 mi NW 15.0 mph 23.0 mph N/A   Clear
1:51 AM 18.0 °F 2.6 °F 5.0 °F 57% 29.57 in 10.0 mi NW 17.3 mph 26.5 mph N/A   Clear
2:51 AM 16.0 °F 1.1 °F 1.9 °F 54% 29.58 in 10.0 mi NW 15.0 mph 25.3 mph N/A   Clear
3:51 AM 14.0 °F -1.4 °F -2.9 °F 47% 29.60 in 10.0 mi WNW 15.0 mph 27.6 mph N/A   Clear
4:51 AM 12.9 °F -2.8 °F -5.1 °F 45% 29.60 in 10.0 mi NW 15.0 mph 23.0 mph N/A   Clear
5:51 AM 12.0 °F -0.4 °F -4.0 °F 49% 29.61 in 10.0 mi WNW 9.2 mph 17.3 mph N/A   Clear
6:51 AM 10.9 °F -1.8 °F -2.0 °F 56% 29.63 in 10.0 mi WNW 9.2 mph - N/A   Clear
7:51 AM 12.0 °F -1.3 °F -0.9 °F 56% 29.65 in 10.0 mi WNW 10.4 mph 20.7 mph N/A   Clear
8:51 AM 14.0 °F -2.0 °F -2.0 °F 49% 29.64 in 10.0 mi WNW 16.1 mph 27.6 mph N/A   Clear
9:51 AM 16.0 °F 2.3 °F -2.0 °F 45% 29.65 in 10.0 mi WNW 12.7 mph 29.9 mph N/A   Clear
10:51 AM 19.0 °F 4.0 °F -0.9 °F 42% 29.64 in 10.0 mi NW 17.3 mph 24.2 mph N/A   Clear
11:51 AM 19.9 °F 3.5 °F -0.9 °F 40% 29.62 in 10.0 mi NW 21.9 mph 27.6 mph N/A   Overcast
12:51 PM 19.0 °F 2.7 °F -2.9 °F 38% 29.61 in 10.0 mi NW 20.7 mph 29.9 mph N/A   Clear
1:51 PM 18.0 °F 0.9 °F -4.0 °F 38% 29.61 in 10.0 mi NW 21.9 mph 31.1 mph N/A   Scattered Clouds
2:51 PM 17.1 °F 1.0 °F -5.1 °F 37% 29.63 in 10.0 mi WNW 18.4 mph 29.9 mph N/A   Clear
3:51 PM 15.1 °F 0.5 °F -6.0 °F 39% 29.65 in 10.0 mi WNW 13.8 mph 28.8 mph N/A   Clear
4:51 PM 12.9 °F -0.2 °F -7.1 °F 41% 29.69 in 10.0 mi NW 10.4 mph 20.7 mph N/A   Clear
5:51 PM 12.0 °F -2.7 °F -7.1 °F 42% 29.73 in 10.0 mi NW 12.7 mph 18.4 mph N/A   Clear
6:51 PM 10.9 °F -3.4 °F -6.0 °F 47% 29.77 in 10.0 mi WNW 11.5 mph 19.6 mph N/A   Clear
7:51 PM 10.9 °F -1.8 °F -6.0 °F 47% 29.80 in 10.0 mi WNW 9.2 mph - N/A   Clear
8:51 PM 10.0 °F -5.2 °F -6.0 °F 48% 29.81 in 10.0 mi WNW 12.7 mph 20.7 mph N/A   Partly Cloudy
9:51 PM 10.0 °F -3.7 °F -6.0 °F 48% 29.83 in 10.0 mi WNW 10.4 mph - N/A   Partly Cloudy
10:51 PM 10.0 °F 0.4 °F -5.1 °F 51% 29.84 in 10.0 mi Variable 5.8 mph 16.1 mph N/A   Overcast
11:51 PM 9.0 °F - -5.1 °F 53% 29.83 in 10.0 mi Calm Calm - N/A   Overcast